Change the Weather History Date:

Thursday, September 12, 2013

  Actual Average Record
Temperature  
Mean Temperature 73 °F 68 °F  
Max Temperature 83 °F 77 °F 96 °F (1952)
Min Temperature 63 °F 59 °F 44 °F (1955)
Degree Days  
Heating Degree Days 0 2  
Month to date heating degree days 0 13  
Since 1 July heating degree days 4 18  
Cooling Degree Days 8 5  
Month to date cooling degree days 128 72  
Year to date cooling degree days 1024 982  
Growing Degree Days 22 (Base 50)    
Moisture  
Dew Point 59 °F    
Average Humidity 61    
Maximum Humidity 84    
Minimum Humidity 28    
Precipitation  
Precipitation 0.06 in 0.11 in 2.43 in (1961)
Month to date precipitation 0.08 1.37  
Year to date precipitation 25.02 27.92  
Sea Level Pressure  
Sea Level Pressure 29.96 in    
Wind  
Wind Speed 10 mph (NNW)    
Max Wind Speed 26 mph    
Max Gust Speed 33 mph    
Visibility 10 miles    
Events      
T = Trace of Precipitation, MM = Missing Value Source: NWS Daily Summary

Daily Weather History Graph

Daily Weather History Graph

Search for Another Location

Airport or City:

Trip Planner

Search our weather history database for the weather conditions in past years. The results will help you decide how hot, cold, wet, or windy it might be!

Date:

Astronomy

Sep. 12, 2013 Rise Set
Actual Time 6:28 AM CDT 7:05 PM CDT
Civil Twilight 6:00 AM CDT 7:33 PM CDT
Nautical Twilight 5:27 AM CDT 8:06 PM CDT
Astronomical Twilight 4:52 AM CDT 8:40 PM CDT
Moon 2:01 PM CDT (9/12) 11:54 PM CDT (9/12)
Length of Visible Light 13h 32m
Length of Day
12h 36m
Waxing Crescent, 50% of the Moon is Illuminated
Sep 12
Waxing Crescent
Sep 12
First Quarter
Sep 19
Full
Sep 26
Last Quarter
Oct 4
New

Hourly Weather History & Observations

Time (CDT) Temp. Heat Index Dew Point Humidity Pressure Visibility Wind Dir Wind Speed Gust Speed Precip Events Conditions
12:51 AM 75.9 °F - 68.0 °F 76% 29.95 in 10.0 mi WSW 5.8 mph - N/A   Overcast
1:51 AM 73.9 °F - 66.9 °F 79% 29.94 in 10.0 mi WSW 5.8 mph - N/A   Scattered Clouds
2:51 AM 73.0 °F - 66.0 °F 79% 29.94 in 10.0 mi West 4.6 mph - N/A   Mostly Cloudy
3:51 AM 73.0 °F - 64.9 °F 76% 29.94 in 10.0 mi NW 6.9 mph - N/A   Overcast
4:51 AM 72.0 °F - 63.0 °F 73% 29.95 in 10.0 mi NW 5.8 mph - N/A   Mostly Cloudy
5:51 AM 70.0 °F - 62.1 °F 76% 29.96 in 10.0 mi NNW 5.8 mph - N/A   Mostly Cloudy
6:51 AM 70.0 °F - 62.1 °F 76% 29.96 in 10.0 mi Calm Calm - N/A   Mostly Cloudy
7:51 AM 71.1 °F - 63.0 °F 75% 29.97 in 10.0 mi Calm Calm - N/A   Mostly Cloudy
8:51 AM 73.9 °F - 63.0 °F 68% 29.97 in 10.0 mi Calm Calm - N/A   Mostly Cloudy
9:51 AM 75.9 °F - 62.1 °F 62% 29.96 in 10.0 mi Variable 3.5 mph - N/A   Scattered Clouds
10:51 AM 79.0 °F - 59.0 °F 50% 29.95 in 10.0 mi Variable 6.9 mph - N/A   Mostly Cloudy
11:51 AM 81.0 °F 80.8 °F 55.9 °F 42% 29.94 in 10.0 mi WSW 17.3 mph 25.3 mph N/A   Scattered Clouds
12:51 PM 82.0 °F 81.7 °F 57.0 °F 42% 29.92 in 10.0 mi West 15.0 mph 25.3 mph N/A   Scattered Clouds
1:51 PM 82.0 °F - 46.0 °F 28% 29.91 in 10.0 mi WNW 12.7 mph 26.5 mph N/A   Partly Cloudy
2:51 PM 81.0 °F - 46.0 °F 29% 29.91 in 10.0 mi WNW 16.1 mph 28.8 mph N/A   Partly Cloudy
3:51 PM 78.1 °F - 55.9 °F 46% 29.92 in 10.0 mi North 23.0 mph 32.2 mph N/A   Scattered Clouds
4:01 PM 75.2 °F - 57.2 °F 53% 29.95 in 10.0 mi North 24.2 mph 33.4 mph N/A   Scattered Clouds
4:51 PM 72.0 °F - 57.9 °F 61% 29.96 in 10.0 mi North 18.4 mph 31.1 mph N/A   Mostly Cloudy
5:51 PM 72.0 °F - 55.0 °F 55% 29.98 in 10.0 mi NNE 13.8 mph 24.2 mph N/A   Scattered Clouds
6:51 PM 70.0 °F - 55.0 °F 59% 29.99 in 10.0 mi North 11.5 mph - N/A   Scattered Clouds
7:51 PM 69.1 °F - 55.0 °F 61% 30.01 in 10.0 mi North 13.8 mph - N/A   Scattered Clouds
8:51 PM 68.0 °F - 55.0 °F 63% 30.03 in 10.0 mi North 13.8 mph - N/A   Mostly Cloudy
9:51 PM 66.9 °F - 55.0 °F 66% 30.03 in 10.0 mi North 9.2 mph - 0.00 in   Mostly Cloudy
10:51 PM 63.0 °F - 57.9 °F 84% 30.04 in 10.0 mi North 6.9 mph - 0.06 in   Mostly Cloudy
11:51 PM 64.9 °F - 55.9 °F 73% 30.05 in 10.0 mi North 10.4 mph 20.7 mph 0.00 in   Overcast